Hourly Data Report for April 03, 2021

OTTAWA INTL A
ONTARIO
Current Station Operator: NAVCAN

45°19'00.000" N
75°40'00.000" W
114.90 m
6106001
71628
YOW

Download Data

Hourly Data (April 2021)
Hourly Data Report for April 3, 2021
TIME
LST
Temp Definition
°C
Dew Point Definition
°C
Rel Hum Definition
%
Precip. Amount Definition
mm

Wind Dir Definition
10's deg

Wind Spd Definition
km/h
Visibility Definition
km
Stn Press Definition
kPa
Hmdx Definition


Wind Chill Definition


Weather Definition


00:00 -5.0 -13.8 50   28 12 24.1 101.05   -10 LegendNANA
01:00 -4.1 -14.0 46   27 7 24.1 101.06   -7 Clear
02:00 -6.3 -12.6 61   25 8 24.1 101.08   -10 LegendNANA
03:00 -6.9 -13.1 61   26 9 24.1 101.13   -11 LegendNANA
04:00 -6.8 -12.7 63   26 9 24.1 101.18   -11 Clear
05:00 -7.5 -13.4 63   24 9 24.1 101.18   -12 LegendNANA
06:00 -6.7 -12.5 64   24 10 24.1 101.22   -11 LegendNANA
07:00 -3.8 -10.5 60   24 9 24.1 101.20   -8 Clear
08:00 -0.5 -11.2 44   26 14 24.1 101.21   -5 LegendNANA
09:00 1.7 -11.7 36   28 16 24.1 101.18     LegendNANA
10:00 4.5 -11.6 30   22 15 24.1 101.11     Mainly Clear
11:00 5.8 -12.3 26   23 14 24.1 101.03     LegendNANA
12:00 7.8 -10.5 26   19 21 24.1 100.95     LegendNANA
13:00 8.9 -12.9 20   22 17 24.1 100.87     Mainly Clear
14:00 9.5 -11.6 21   23 32 24.1 100.81     LegendNANA
15:00 9.6 -10.2 24   20 20 24.1 100.72     LegendNANA
16:00 9.9 -9.4 25   22 25 24.1 100.69     Mainly Clear
17:00 8.8 -8.4 29   20 23 24.1 100.70     LegendNANA
18:00 6.7 -7.5 36   19 18 24.1 100.71     LegendNANA
19:00 4.8 -7.2 42   19 12 24.1 100.76     Mainly Clear
20:00 4.8 -6.3 44   20 16 24.1 100.78     LegendNANA
21:00 4.5 -5.6 48   20 11 24.1 100.79     LegendNANA
22:00 4.2 -5.2 50   20 9 24.1 100.78     Mostly Cloudy
23:00 3.7 -4.9 53   21 12 24.1 100.77     LegendNANA

Notes on Data Quality.

Legend

  • E = Estimated
  • M = Missing
  • NA = Not Available*
  • [empty] = Indicates an unobserved value
Date modified: